| time (UTC) | temp F | wind direction | speed MPH | gust MPH | rain 1hr in | rain 24hr in | rain mn in | humidity % | barometer mb |
| 20260504011803 | 65 | 141 | 8.0 | 18.0 | 0.00 | 0.00 | 0.00 | 31 | |
| 20260504010903 | 65 | 149 | 7.0 | 13.0 | 0.00 | 0.00 | 0.00 | 31 | |
| 20260504010214 | 65 | 151 | 5.0 | 13.0 | 0.00 | 0.00 | 0.00 | 31 | |
| 20260504005403 | 65 | 153 | 6.0 | 15.0 | 0.00 | 0.00 | 0.00 | 31 | |
| 20260504004503 | 65 | 139 | 9.0 | 21.0 | 0.00 | 0.00 | 0.00 | 30 | |
| 20260504003603 | 66 | 141 | 12.0 | 21.0 | 0.00 | 0.00 | 0.00 | 30 | |
| 20260504002913 | 66 | 149 | 13.0 | 23.0 | 0.00 | 0.00 | 0.00 | 30 | |
| 20260504001803 | 68 | 156 | 7.0 | 27.0 | 0.00 | 0.00 | 0.00 | 28 | |
| 20260504000903 | 69 | 153 | 6.0 | 13.0 | 0.00 | 0.00 | 0.00 | 26 | |
| 20260504000003 | 70 | 153 | 8.0 | 16.0 | 0.00 | 0.00 | 0.00 | 25 | |
| 20260503235403 | 70 | 164 | 8.0 | 17.0 | 0.00 | 0.00 | 0.00 | 25 | |
| 20260503234503 | 71 | 154 | 10.0 | 18.0 | 0.00 | 0.00 | 0.00 | 25 | |
| 20260503233603 | 73 | 170 | 9.0 | 22.0 | 0.00 | 0.00 | 0.00 | 24 | |
| 20260503232703 | 74 | 187 | 6.0 | 13.0 | 0.00 | 0.00 | 0.00 | 23 | |
| 20260503232012 | 74 | 210 | 6.0 | 13.0 | 0.00 | 0.00 | 0.00 | 22 | |
| 20260503230903 | 75 | 191 | 6.0 | 18.0 | 0.00 | 0.00 | 0.00 | 23 | |
| 20260503230003 | 75 | 143 | 7.0 | 13.0 | 0.00 | 0.00 | 0.00 | 22 | |
| 20260503225403 | 74 | 132 | 7.0 | 13.0 | 0.00 | 0.00 | 0.00 | 21 | |
| 20260503224503 | 75 | 130 | 5.0 | 15.0 | 0.00 | 0.00 | 0.00 | 21 | |
| 20260503223813 | 74 | 112 | 5.0 | 10.0 | 0.00 | 0.00 | 0.00 | 22 | |
| 20260503222703 | 75 | 164 | 5.0 | 11.0 | 0.00 | 0.00 | 0.00 | 22 | |
| 20260503221803 | 76 | 230 | 8.0 | 15.0 | 0.00 | 0.00 | 0.00 | 23 | |
| 20260503221113 | 76 | 210 | 8.0 | 15.0 | 0.00 | 0.00 | 0.00 | 22 | |
| 20260503220003 | 77 | 191 | 6.0 | 14.0 | 0.00 | 0.00 | 0.00 | 21 | |
| 20260503215403 | 76 | 171 | 7.0 | 14.0 | 0.00 | 0.00 | 0.00 | 21 | |
| 20260503214503 | 76 | 184 | 7.0 | 18.0 | 0.00 | 0.00 | 0.00 | 21 | |
| 20260503213603 | 76 | 166 | 7.0 | 13.0 | 0.00 | 0.00 | 0.00 | 22 | |
| 20260503212703 | 76 | 187 | 10.0 | 18.0 | 0.00 | 0.00 | 0.00 | 21 | |
| 20260503211803 | 77 | 209 | 9.0 | 18.0 | 0.00 | 0.00 | 0.00 | 21 | |
| 20260503210903 | 76 | 194 | 7.0 | 21.0 | 0.00 | 0.00 | 0.00 | 22 | |
| 20260503210003 | 76 | 197 | 7.0 | 14.0 | 0.00 | 0.00 | 0.00 | 21 | |
| 20260503205403 | 75 | 229 | 7.0 | 14.0 | 0.00 | 0.00 | 0.00 | 21 | |
| 20260503204503 | 76 | 208 | 7.0 | 14.0 | 0.00 | 0.00 | 0.00 | 20 | |
| 20260503203813 | 76 | 213 | 6.0 | 14.0 | 0.00 | 0.00 | 0.00 | 21 | |
| 20260503202703 | 75 | 217 | 7.0 | 17.0 | 0.00 | 0.00 | 0.00 | 22 | |
| 20260503201803 | 75 | 187 | 7.0 | 19.0 | 0.00 | 0.00 | 0.00 | 22 | |
| 20260503200903 | 75 | 236 | 10.0 | 16.0 | 0.00 | 0.00 | 0.00 | 21 | |
| 20260503200003 | 74 | 207 | 7.0 | 19.0 | 0.00 | 0.00 | 0.00 | 21 | |
| 20260503195403 | 74 | 196 | 6.0 | 18.0 | 0.00 | 0.00 | 0.00 | 21 | |
| 20260503194503 | 74 | 220 | 7.0 | 13.0 | 0.00 | 0.00 | 0.00 | 21 | |
| 20260503193603 | 73 | 205 | 8.0 | 15.0 | 0.00 | 0.00 | 0.00 | 21 | |
| 20260503192703 | 74 | 201 | 8.0 | 18.0 | 0.00 | 0.00 | 0.00 | 20 | |
| 20260503191803 | 73 | 175 | 9.0 | 21.0 | 0.00 | 0.00 | 0.00 | 20 | |
| 20260503190903 | 73 | 180 | 9.0 | 20.0 | 0.00 | 0.00 | 0.00 | 20 | |
| 20260503190003 | 73 | 193 | 9.0 | 25.0 | 0.00 | 0.00 | 0.00 | 22 | |
| 20260503185403 | 72 | 198 | 9.0 | 25.0 | 0.00 | 0.00 | 0.00 | 21 | |
| 20260503184503 | 72 | 210 | 8.0 | 17.0 | 0.00 | 0.00 | 0.00 | 22 | |
| 20260503183603 | 74 | 213 | 8.0 | 18.0 | 0.00 | 0.00 | 0.00 | 21 | |
| 20260503182704 | 73 | 199 | 10.0 | 22.0 | 0.00 | 0.00 | 0.00 | 22 | |
| 20260503181803 | 72 | 213 | 7.0 | 20.0 | 0.00 | 0.00 | 0.00 | 24 | |
| 20260503180903 | 71 | 212 | 7.0 | 15.0 | 0.00 | 0.00 | 0.00 | 24 | |
| 20260503180003 | 72 | 214 | 8.0 | 17.0 | 0.00 | 0.00 | 0.00 | 23 | |
| 20260503175403 | 72 | 210 | 7.0 | 13.0 | 0.00 | 0.00 | 0.00 | 23 | |
| 20260503174712 | 72 | 203 | 8.0 | 14.0 | 0.00 | 0.00 | 0.00 | 23 | |
| 20260503173603 | 72 | 209 | 7.0 | 13.0 | 0.00 | 0.00 | 0.00 | 24 | |
| 20260503172913 | 71 | 201 | 8.0 | 16.0 | 0.00 | 0.00 | 0.00 | 24 | |
| 20260503171803 | 71 | 206 | 7.0 | 15.0 | 0.00 | 0.00 | 0.00 | 23 | |
| 20260503170903 | 71 | 215 | 6.0 | 12.0 | 0.00 | 0.00 | 0.00 | 22 | |
| 20260503150903 | 56 | 341 | 2.0 | 3.0 | 0.00 | 0.00 | 0.00 | 38 | |
| 20260503150214 | 55 | 341 | 2.0 | 5.0 | 0.00 | 0.00 | 0.00 | 37 | |
| 20260503130903 | 42 | 149 | 1.0 | 6.0 | 0.00 | 0.00 | 0.00 | 49 | |
| 20260503081112 | 55 | 219 | 2.0 | 6.0 | 0.00 | 0.00 | 0.00 | 31 | |
| 20260503072703 | 61 | 101 | 6.0 | 12.0 | 0.00 | 0.00 | 0.00 | 23 | |
| 20260503071803 | 60 | 102 | 5.0 | 11.0 | 0.00 | 0.00 | 0.00 | 23 | |
| 20260503070903 | 59 | 92 | 4.0 | 9.0 | 0.00 | 0.00 | 0.00 | 25 | |
| 20260503054503 | 60 | 107 | 3.0 | 9.0 | 0.00 | 0.00 | 0.00 | 25 | |
| 20260503053603 | 60 | 108 | 5.0 | 11.0 | 0.00 | 0.00 | 0.00 | 24 | |
| 20260503052703 | 60 | 102 | 7.0 | 13.0 | 0.00 | 0.00 | 0.00 | 24 | |
| 20260503051803 | 60 | 112 | 7.0 | 18.0 | 0.00 | 0.00 | 0.00 | 24 | |
| 20260503050903 | 60 | 124 | 7.0 | 14.0 | 0.00 | 0.00 | 0.00 | 24 | |
| 20260503050003 | 60 | 120 | 6.0 | 15.0 | 0.00 | 0.00 | 0.00 | 23 | |
| 20260503045403 | 60 | 118 | 6.0 | 14.0 | 0.00 | 0.00 | 0.00 | 24 | |
| 20260503044503 | 60 | 110 | 6.0 | 12.0 | 0.00 | 0.00 | 0.00 | 24 | |
| 20260503043813 | 60 | 106 | 6.0 | 12.0 | 0.00 | 0.00 | 0.00 | 24 | |
| 20260503042703 | 60 | 105 | 7.0 | 13.0 | 0.00 | 0.00 | 0.00 | 24 | |
| 20260503041803 | 60 | 105 | 6.0 | 13.0 | 0.00 | 0.00 | 0.00 | 24 | |
| 20260503041113 | 60 | 104 | 7.0 | 13.0 | 0.00 | 0.00 | 0.00 | 23 | |
| 20260503040003 | 60 | 113 | 5.0 | 11.0 | 0.00 | 0.00 | 0.00 | 23 | |
| 20260503035404 | 61 | 120 | 5.0 | 13.0 | 0.00 | 0.00 | 0.00 | 23 | |
| 20260503034503 | 61 | 112 | 5.0 | 10.0 | 0.00 | 0.00 | 0.00 | 23 | |
| 20260503033603 | 62 | 111 | 5.0 | 14.0 | 0.00 | 0.00 | 0.00 | 22 | |
| 20260503032703 | 62 | 109 | 4.0 | 9.0 | 0.00 | 0.00 | 0.00 | 22 | |
| 20260503031803 | 62 | 103 | 3.0 | 6.0 | 0.00 | 0.00 | 0.00 | 22 | |
| 20260503030903 | 63 | 112 | 2.0 | 5.0 | 0.00 | 0.00 | 0.00 | 21 | |
| 20260503030214 | 63 | 126 | 2.0 | 6.0 | 0.00 | 0.00 | 0.00 | 21 | |
| 20260503025403 | 64 | 123 | 2.0 | 7.0 | 0.00 | 0.00 | 0.00 | 20 | |
| 20260503024503 | 64 | 123 | 2.0 | 5.0 | 0.00 | 0.00 | 0.00 | 20 | |
| 20260503023603 | 65 | 123 | 3.0 | 11.0 | 0.00 | 0.00 | 0.00 | 20 | |
| 20260503022703 | 65 | 122 | 3.0 | 8.0 | 0.00 | 0.00 | 0.00 | 20 | |
| 20260503021803 | 66 | 126 | 3.0 | 7.0 | 0.00 | 0.00 | 0.00 | 19 | |
| 20260503020903 | 66 | 133 | 4.0 | 10.0 | 0.00 | 0.00 | 0.00 | 19 | |
| 20260503020003 | 67 | 135 | 5.0 | 12.0 | 0.00 | 0.00 | 0.00 | 18 | |
| 20260503015403 | 68 | 129 | 6.0 | 14.0 | 0.00 | 0.00 | 0.00 | 18 | |
| 20260503014503 | 68 | 136 | 5.0 | 13.0 | 0.00 | 0.00 | 0.00 | 19 | |
| 20260503013603 | 69 | 141 | 5.0 | 14.0 | 0.00 | 0.00 | 0.00 | 18 | |
| 20260503012703 | 69 | 150 | 6.0 | 13.0 | 0.00 | 0.00 | 0.00 | 18 |